{"data":{"norad_id":56333,"epoch":"2026-09-20T13:02:34.764288Z","epoch_age_seconds":104854,"freshness":"FRESH","line1":"1 56333U 23058S   26263.54345792 -.00000306  00000+0 -71541-5 0  9999","line2":"2 56333  97.2838 260.3235 0001695  89.0590 271.0847 15.33444084187643","mean_motion":15.33444084,"eccentricity":0.0001695,"inclination_deg":97.2838,"raan_deg":260.3235,"arg_perigee_deg":89.059,"mean_anomaly_deg":271.0847,"bstar":-7.1541e-6,"rev_number":18764,"period_min":93.906260751533,"perigee_km":464.3858955995,"apogee_km":466.70590410255,"semimajor_km":6843.682899851,"source":"CELESTRAK","updated_at":"2026-09-21T09:00:33.403622Z"}}